Time,TemperatureF,DewpointF,PressureIn,WindDirection,WindDirectionDegrees,WindSpeedMPH,WindSpeedGustMPH,Humidity,HourlyPrecipIn,Conditions,Clouds,dailyrainin,SoftwareType,DateUTC
2013-07-20 00:00:00,79.1,74.6,29.88,WSW,237,0.0,3.0,86,0.00,,CLR,0.00,VWS V14.01,2013-07-20 04:00:00,
2013-07-20 00:01:00,79.1,74.6,29.88,WSW,237,0.0,0.0,86,0.00,,CLR,0.00,VWS V14.01,2013-07-20 04:01:00,
2013-07-20 00:02:00,79.1,74.6,29.88,WSW,237,0.0,1.0,86,0.00,,CLR,0.00,VWS V14.01,2013-07-20 04:02:00,
2013-07-20 00:07:00,79.2,74.3,29.89,WSW,237,0.0,1.0,85,0.00,,CLR,0.00,VWS V14.01,2013-07-20 04:07:00,
2013-07-20 00:12:00,79.4,74.5,29.89,WSW,237,0.0,3.0,85,0.00,,CLR,0.00,VWS V14.01,2013-07-20 04:12:00,
2013-07-20 00:17:00,79.6,74.3,29.89,SW,230,4.0,8.0,84,0.00,,CLR,0.00,VWS V14.01,2013-07-20 04:17:00,
2013-07-20 00:22:00,80.0,74.4,29.90,SSW,210,1.0,10.0,83,0.00,,CLR,0.00,VWS V14.01,2013-07-20 04:22:00,
2013-07-20 00:27:00,80.2,74.2,29.90,WSW,240,5.0,10.0,82,0.00,,CLR,0.00,VWS V14.01,2013-07-20 04:27:00,
2013-07-20 00:32:00,80.4,74.0,29.90,WSW,238,0.0,3.0,81,0.00,,CLR,0.00,VWS V14.01,2013-07-20 04:32:00,
2013-07-20 00:37:00,80.5,74.1,29.90,WSW,255,5.0,6.0,81,0.00,,CLR,0.00,VWS V14.01,2013-07-20 04:37:00,
2013-07-20 00:42:00,80.5,74.1,29.90,WSW,244,6.0,7.0,81,0.00,,CLR,0.00,VWS V14.01,2013-07-20 04:42:00,
2013-07-20 00:47:00,80.5,74.1,29.91,WSW,257,3.0,7.0,81,0.00,,CLR,0.00,VWS V14.01,2013-07-20 04:47:00,
2013-07-20 00:52:00,80.5,74.1,29.91,WSW,238,2.0,7.0,81,0.00,,CLR,0.00,VWS V14.01,2013-07-20 04:52:00,
2013-07-20 00:57:00,80.4,74.0,29.90,West,263,1.0,7.0,81,0.00,,CLR,0.00,VWS V14.01,2013-07-20 04:57:00,
2013-07-20 01:02:00,80.3,74.3,29.90,WSW,248,3.0,3.0,82,0.00,,,0.00,VWS V14.01,2013-07-20 05:02:00,
2013-07-20 01:07:00,80.1,74.1,29.90,WSW,249,4.0,4.0,82,0.00,,,0.00,VWS V14.01,2013-07-20 05:07:00,
2013-07-20 01:12:00,80.0,74.0,29.90,WSW,252,0.0,4.0,82,0.00,,,0.00,VWS V14.01,2013-07-20 05:12:00,
2013-07-20 01:17:00,79.9,74.3,29.90,SW,231,3.0,6.0,83,0.00,,,0.00,VWS V14.01,2013-07-20 05:17:00,
2013-07-20 01:22:00,79.8,74.2,29.90,SW,232,0.0,7.0,83,0.00,,,0.00,VWS V14.01,2013-07-20 05:22:00,
2013-07-20 01:27:00,79.6,74.0,29.90,WNW,297,0.0,7.0,83,0.00,,,0.00,VWS V14.01,2013-07-20 05:27:00,
2013-07-20 01:32:00,79.4,74.2,29.90,WSW,246,0.0,1.0,84,0.00,,,0.00,VWS V14.01,2013-07-20 05:32:00,
2013-07-20 01:37:00,79.3,74.1,29.91,WSW,250,3.0,9.0,84,0.00,,,0.00,VWS V14.01,2013-07-20 05:37:00,
2013-07-20 01:42:00,79.2,73.9,29.90,WSW,244,0.0,9.0,84,0.00,,,0.00,VWS V14.01,2013-07-20 05:42:00,
2013-07-20 01:47:00,79.1,74.2,29.90,WSW,258,0.0,9.0,85,0.00,,,0.00,VWS V14.01,2013-07-20 05:47:00,
2013-07-20 01:52:00,79.0,74.1,29.90,West,270,0.0,9.0,85,0.00,,,0.00,VWS V14.01,2013-07-20 05:52:00,
2013-07-20 01:57:00,78.8,73.9,29.90,WSW,246,3.0,9.0,85,0.00,,,0.00,VWS V14.01,2013-07-20 05:57:00,
2013-07-20 02:02:00,78.7,73.8,29.89,WSW,244,4.0,6.0,85,0.00,,,0.00,VWS V14.01,2013-07-20 06:02:00,
2013-07-20 02:07:00,78.7,73.8,29.89,WSW,251,0.0,6.0,85,0.00,,,0.00,VWS V14.01,2013-07-20 06:07:00,
2013-07-20 02:12:00,78.6,73.7,29.89,WSW,249,0.0,6.0,85,0.00,,,0.00,VWS V14.01,2013-07-20 06:12:00,
2013-07-20 02:17:00,78.5,73.6,29.89,WSW,251,0.0,6.0,85,0.00,,,0.00,VWS V14.01,2013-07-20 06:17:00,
2013-07-20 02:22:00,78.3,73.4,29.88,West,263,0.0,6.0,85,0.00,,,0.00,VWS V14.01,2013-07-20 06:22:00,
2013-07-20 02:27:00,78.2,73.3,29.88,West,261,0.0,6.0,85,0.00,,,0.00,VWS V14.01,2013-07-20 06:27:00,
2013-07-20 02:32:00,78.0,73.5,29.87,SW,216,0.0,5.0,86,0.00,,,0.00,VWS V14.01,2013-07-20 06:32:00,
2013-07-20 02:37:00,77.9,73.4,29.87,WNW,285,0.0,5.0,86,0.00,,,0.00,VWS V14.01,2013-07-20 06:37:00,
2013-07-20 02:42:00,77.8,73.3,29.87,West,265,0.0,5.0,86,0.00,,,0.00,VWS V14.01,2013-07-20 06:42:00,
2013-07-20 02:47:00,77.6,73.1,29.87,West,265,0.0,5.0,86,0.00,,,0.00,VWS V14.01,2013-07-20 06:47:00,
2013-07-20 02:52:00,77.4,73.2,29.86,West,265,0.0,5.0,87,0.00,,,0.00,VWS V14.01,2013-07-20 06:52:00,
2013-07-20 02:58:00,77.2,73.0,29.86,West,265,0.0,5.0,87,0.00,,,0.00,VWS V14.01,2013-07-20 06:58:00,
2013-07-20 03:03:00,77.0,72.8,29.86,SW,228,0.0,3.0,87,0.00,,,0.00,VWS V14.01,2013-07-20 07:03:00,
2013-07-20 03:08:00,76.8,72.6,29.86,SW,228,0.0,3.0,87,0.00,,,0.00,VWS V14.01,2013-07-20 07:08:00,
2013-07-20 03:13:00,76.6,72.8,29.86,SW,228,0.0,3.0,88,0.00,,,0.00,VWS V14.01,2013-07-20 07:13:00,
2013-07-20 03:18:00,76.3,72.8,29.86,SW,228,0.0,3.0,89,0.00,,,0.00,VWS V14.01,2013-07-20 07:18:00,
2013-07-20 03:23:00,76.1,72.6,29.86,SW,228,0.0,3.0,89,0.00,,,0.00,VWS V14.01,2013-07-20 07:23:00,
2013-07-20 03:28:00,75.9,72.4,29.86,SW,228,0.0,3.0,89,0.00,,,0.00,VWS V14.01,2013-07-20 07:28:00,
2013-07-20 03:33:00,75.6,72.5,29.86,SW,228,0.0,0.0,90,0.00,,,0.00,VWS V14.01,2013-07-20 07:33:00,
2013-07-20 03:38:00,75.4,72.3,29.86,SW,228,0.0,0.0,90,0.00,,,0.00,VWS V14.01,2013-07-20 07:38:00,
2013-07-20 03:43:00,75.2,72.4,29.85,SW,228,0.0,0.0,91,0.00,,,0.00,VWS V14.01,2013-07-20 07:43:00,
2013-07-20 03:48:00,75.0,72.2,29.86,SW,228,0.0,0.0,91,0.00,,,0.00,VWS V14.01,2013-07-20 07:48:00,
2013-07-20 03:53:00,74.8,72.0,29.86,SW,228,0.0,0.0,91,0.00,,,0.00,VWS V14.01,2013-07-20 07:53:00,
2013-07-20 03:58:00,74.7,72.2,29.86,SW,228,0.0,0.0,92,0.00,,,0.00,VWS V14.01,2013-07-20 07:58:00,
2013-07-20 04:03:00,74.6,72.1,29.86,SW,228,0.0,0.0,92,0.00,,,0.00,VWS V14.01,2013-07-20 08:03:00,
2013-07-20 04:08:00,74.4,71.9,29.86,SW,228,0.0,0.0,92,0.00,,,0.00,VWS V14.01,2013-07-20 08:08:00,
2013-07-20 04:13:00,74.3,71.8,29.86,SW,228,0.0,1.0,92,0.00,,,0.00,VWS V14.01,2013-07-20 08:13:00,
2013-07-20 04:18:00,74.3,72.2,29.86,SW,228,0.0,1.0,93,0.00,,,0.00,VWS V14.01,2013-07-20 08:18:00,
2013-07-20 04:23:00,74.3,72.2,29.86,SW,228,0.0,1.0,93,0.00,,,0.00,VWS V14.01,2013-07-20 08:23:00,
2013-07-20 04:28:00,74.3,72.2,29.86,SW,228,0.0,1.0,93,0.00,,,0.00,VWS V14.01,2013-07-20 08:28:00,
2013-07-20 04:33:00,74.2,72.1,29.86,SW,228,0.0,0.0,93,0.00,,,0.00,VWS V14.01,2013-07-20 08:33:00,
2013-07-20 04:38:00,74.2,72.1,29.86,SW,228,0.0,1.0,93,0.00,,,0.00,VWS V14.01,2013-07-20 08:38:00,
2013-07-20 04:43:00,74.3,72.5,29.87,WSW,244,2.0,5.0,94,0.00,,,0.00,VWS V14.01,2013-07-20 08:43:00,
2013-07-20 04:48:00,74.6,72.4,29.88,West,260,2.0,5.0,93,0.00,,,0.00,VWS V14.01,2013-07-20 08:48:00,
2013-07-20 04:53:00,74.8,72.6,29.87,WSW,256,0.0,5.0,93,0.00,,,0.00,VWS V14.01,2013-07-20 08:53:00,
2013-07-20 04:58:00,75.0,72.5,29.87,WSW,258,3.0,5.0,92,0.00,,,0.00,VWS V14.01,2013-07-20 08:58:00,
2013-07-20 05:03:00,75.1,72.6,29.87,SW,232,0.0,5.0,92,0.00,,,0.00,VWS V14.01,2013-07-20 09:03:00,
2013-07-20 05:08:00,75.2,72.7,29.87,SW,232,2.0,5.0,92,0.00,,,0.00,VWS V14.01,2013-07-20 09:08:00,
2013-07-20 05:13:00,75.3,72.8,29.88,SW,232,0.0,5.0,92,0.00,,,0.00,VWS V14.01,2013-07-20 09:13:00,
2013-07-20 05:18:00,75.4,72.9,29.88,WSW,256,3.0,5.0,92,0.00,,,0.00,VWS V14.01,2013-07-20 09:18:00,
2013-07-20 05:23:00,75.4,72.9,29.87,WSW,255,1.0,5.0,92,0.00,,,0.00,VWS V14.01,2013-07-20 09:23:00,
2013-07-20 05:28:00,75.4,72.9,29.87,WSW,255,0.0,5.0,92,0.00,,,0.00,VWS V14.01,2013-07-20 09:28:00,
2013-07-20 05:33:00,75.5,72.7,29.87,WSW,254,0.0,1.0,91,0.00,,,0.00,VWS V14.01,2013-07-20 09:33:00,
2013-07-20 05:38:00,75.5,72.7,29.88,WSW,254,0.0,3.0,91,0.00,,,0.00,VWS V14.01,2013-07-20 09:38:00,
2013-07-20 05:43:00,75.5,72.7,29.88,WSW,254,3.0,4.0,91,0.00,,,0.00,VWS V14.01,2013-07-20 09:43:00,
2013-07-20 05:48:00,75.6,72.5,29.88,WSW,237,2.0,6.0,90,0.00,,,0.00,VWS V14.01,2013-07-20 09:48:00,
2013-07-20 05:53:00,75.7,72.6,29.88,WSW,254,0.0,6.0,90,0.00,,,0.00,VWS V14.01,2013-07-20 09:53:00,
2013-07-20 05:58:00,75.8,72.7,29.88,SW,231,0.0,6.0,90,0.00,,,0.00,VWS V14.01,2013-07-20 09:58:00,
2013-07-20 06:03:00,75.8,72.7,29.88,WSW,240,1.0,5.0,90,0.00,,,0.00,VWS V14.01,2013-07-20 10:03:00,
2013-07-20 06:08:00,75.9,72.4,29.88,WSW,257,0.0,5.0,89,0.00,,,0.00,VWS V14.01,2013-07-20 10:08:00,
2013-07-20 06:13:00,75.9,72.8,29.88,West,267,2.0,5.0,90,0.00,,,0.00,VWS V14.01,2013-07-20 10:13:00,
2013-07-20 06:19:00,75.9,72.4,29.88,WSW,258,1.0,5.0,89,0.00,,,0.00,VWS V14.01,2013-07-20 10:19:00,
2013-07-20 06:24:00,76.0,72.5,29.88,WSW,240,0.0,5.0,89,0.00,,,0.00,VWS V14.01,2013-07-20 10:24:00,
2013-07-20 06:29:00,76.0,72.5,29.88,West,259,0.0,5.0,89,0.00,,,0.00,VWS V14.01,2013-07-20 10:29:00,
2013-07-20 06:34:00,76.0,72.5,29.88,West,260,0.0,3.0,89,0.00,,,0.00,VWS V14.01,2013-07-20 10:34:00,
2013-07-20 06:39:00,76.0,72.5,29.88,West,264,0.0,3.0,89,0.00,,,0.00,VWS V14.01,2013-07-20 10:39:00,
2013-07-20 06:44:00,76.0,72.5,29.89,West,263,2.0,3.0,89,0.00,,,0.00,VWS V14.01,2013-07-20 10:44:00,
2013-07-20 06:49:00,76.0,72.5,29.89,WSW,256,0.0,4.0,89,0.00,,,0.00,VWS V14.01,2013-07-20 10:49:00,
2013-07-20 06:54:00,76.0,72.5,29.89,SW,222,0.0,4.0,89,0.00,,,0.00,VWS V14.01,2013-07-20 10:54:00,
2013-07-20 06:59:00,76.0,72.5,29.89,WSW,251,0.0,5.0,89,0.00,,,0.00,VWS V14.01,2013-07-20 10:59:00,
2013-07-20 07:04:00,76.0,72.5,29.88,WSW,244,4.0,6.0,89,0.00,,,0.00,VWS V14.01,2013-07-20 11:04:00,
2013-07-20 07:09:00,76.0,72.5,29.88,South,191,0.0,6.0,89,0.00,,,0.00,VWS V14.01,2013-07-20 11:09:00,
2013-07-20 07:14:00,76.1,72.6,29.88,South,191,0.0,6.0,89,0.00,,,0.00,VWS V14.01,2013-07-20 11:14:00,
2013-07-20 07:19:00,76.1,72.6,29.88,WSW,256,0.0,6.0,89,0.00,,,0.00,VWS V14.01,2013-07-20 11:19:00,
2013-07-20 07:24:00,76.1,72.6,29.88,WSW,245,0.0,6.0,89,0.00,,,0.00,VWS V14.01,2013-07-20 11:24:00,
2013-07-20 07:29:00,76.2,72.7,29.89,SW,233,2.0,6.0,89,0.00,,,0.00,VWS V14.01,2013-07-20 11:29:00,
2013-07-20 07:34:00,76.3,72.8,29.89,SW,233,0.0,5.0,89,0.00,,,0.00,VWS V14.01,2013-07-20 11:34:00,
2013-07-20 07:39:00,76.5,73.0,29.89,WSW,242,0.0,5.0,89,0.00,,,0.00,VWS V14.01,2013-07-20 11:39:00,
2013-07-20 07:44:00,76.7,72.9,29.89,WSW,243,0.0,5.0,88,0.00,,,0.00,VWS V14.01,2013-07-20 11:44:00,
2013-07-20 07:49:00,76.9,72.7,29.89,West,259,3.0,5.0,87,0.00,,,0.00,VWS V14.01,2013-07-20 11:49:00,
2013-07-20 07:54:00,77.0,72.8,29.89,WSW,254,2.0,6.0,87,0.00,,,0.00,VWS V14.01,2013-07-20 11:54:00,
2013-07-20 07:59:00,77.1,72.9,29.89,WSW,258,1.0,6.0,87,0.00,,,0.00,VWS V14.01,2013-07-20 11:59:00,
2013-07-20 08:04:00,77.3,72.8,29.89,WSW,245,3.0,7.0,86,0.00,,,0.00,VWS V14.01,2013-07-20 12:04:00,
2013-07-20 08:09:00,77.3,73.1,29.89,WSW,247,0.0,7.0,87,0.00,,,0.00,VWS V14.01,2013-07-20 12:09:00,
2013-07-20 08:14:00,77.4,72.9,29.89,WSW,238,0.0,7.0,86,0.00,,,0.00,VWS V14.01,2013-07-20 12:14:00,
2013-07-20 08:19:00,77.4,72.9,29.89,WSW,244,6.0,7.0,86,0.00,,,0.00,VWS V14.01,2013-07-20 12:19:00,
2013-07-20 08:24:00,77.5,73.0,29.89,SW,229,2.0,7.0,86,0.00,,,0.00,VWS V14.01,2013-07-20 12:24:00,
2013-07-20 08:29:00,77.7,73.2,29.89,WSW,239,2.0,7.0,86,0.00,,,0.00,VWS V14.01,2013-07-20 12:29:00,
2013-07-20 08:34:00,77.9,73.4,29.89,West,261,3.0,4.0,86,0.00,,,0.00,VWS V14.01,2013-07-20 12:34:00,
2013-07-20 08:39:00,78.0,73.5,29.89,South,183,0.0,8.0,86,0.00,,,0.00,VWS V14.01,2013-07-20 12:39:00,
2013-07-20 08:44:00,78.1,73.6,29.89,South,183,0.0,8.0,86,0.00,,,0.00,VWS V14.01,2013-07-20 12:44:00,
2013-07-20 08:49:00,78.1,73.9,29.89,WSW,251,0.0,8.0,87,0.00,,,0.00,VWS V14.01,2013-07-20 12:49:00,
2013-07-20 08:54:00,78.1,73.9,29.90,West,272,0.0,8.0,87,0.00,,,0.00,VWS V14.01,2013-07-20 12:54:00,
2013-07-20 08:59:00,78.1,73.9,29.89,WNW,285,2.0,8.0,87,0.00,,,0.00,VWS V14.01,2013-07-20 12:59:00,
2013-07-20 09:04:00,78.2,74.4,29.90,WSW,251,4.0,4.0,88,0.00,,,0.00,VWS V14.01,2013-07-20 13:04:00,
2013-07-20 09:09:00,78.4,74.2,29.90,WSW,250,4.0,6.0,87,0.00,,,0.00,VWS V14.01,2013-07-20 13:09:00,
2013-07-20 09:14:00,78.7,74.5,29.89,SW,236,3.0,6.0,87,0.00,,,0.00,VWS V14.01,2013-07-20 13:14:00,
2013-07-20 09:19:00,79.1,74.6,29.89,SW,233,6.0,7.0,86,0.00,,,0.00,VWS V14.01,2013-07-20 13:19:00,
2013-07-20 09:24:00,79.7,74.4,29.88,SSW,204,2.0,7.0,84,0.00,,,0.00,VWS V14.01,2013-07-20 13:24:00,
2013-07-20 09:29:00,80.2,74.6,29.89,SW,233,5.0,7.0,83,0.00,,,0.00,VWS V14.01,2013-07-20 13:29:00,
2013-07-20 09:34:00,80.4,74.4,29.88,West,264,3.0,6.0,82,0.00,,,0.00,VWS V14.01,2013-07-20 13:34:00,
2013-07-20 09:39:00,80.6,74.6,29.88,WSW,240,5.0,8.0,82,0.00,,,0.00,VWS V14.01,2013-07-20 13:39:00,
2013-07-20 09:44:00,81.1,75.1,29.87,SW,221,4.0,10.0,82,0.00,,,0.00,VWS V14.01,2013-07-20 13:44:00,
2013-07-20 09:49:00,81.4,74.6,29.87,SSW,201,4.0,10.0,80,0.00,,,0.00,VWS V14.01,2013-07-20 13:49:00,
2013-07-20 09:54:00,81.8,75.0,29.86,SSW,209,4.0,12.0,80,0.00,,,0.00,VWS V14.01,2013-07-20 13:54:00,
2013-07-20 10:00:00,82.3,75.1,29.86,SSW,205,5.0,12.0,79,0.00,,,0.00,VWS V14.01,2013-07-20 14:00:00,
2013-07-20 10:05:00,82.6,75.1,29.86,SW,231,0.0,8.0,78,0.00,,,0.00,VWS V14.01,2013-07-20 14:05:00,
2013-07-20 10:10:00,82.5,74.6,29.87,WSW,249,3.0,10.0,77,0.00,,,0.00,VWS V14.01,2013-07-20 14:10:00,
2013-07-20 10:15:00,82.9,75.3,29.87,WSW,256,4.0,10.0,78,0.00,,,0.00,VWS V14.01,2013-07-20 14:15:00,
2013-07-20 10:20:00,83.0,75.1,29.87,SW,216,6.0,13.0,77,0.00,,,0.00,VWS V14.01,2013-07-20 14:20:00,
2013-07-20 10:25:00,83.1,74.8,29.87,SSW,196,4.0,13.0,76,0.00,,,0.00,VWS V14.01,2013-07-20 14:25:00,
2013-07-20 10:30:00,83.2,74.8,29.86,WSW,250,4.0,13.0,76,0.00,,,0.00,VWS V14.01,2013-07-20 14:30:00,
2013-07-20 10:35:00,83.6,74.8,29.86,SW,233,4.0,11.0,75,0.00,,,0.00,VWS V14.01,2013-07-20 14:35:00,
2013-07-20 10:40:00,84.0,75.2,29.86,WSW,240,8.0,11.0,75,0.00,,,0.00,VWS V14.01,2013-07-20 14:40:00,
2013-07-20 10:45:00,84.5,75.3,29.85,WSW,258,2.0,12.0,74,0.00,,,0.00,VWS V14.01,2013-07-20 14:45:00,
2013-07-20 10:50:00,85.2,75.6,29.84,SSW,208,5.0,13.0,73,0.00,,,0.00,VWS V14.01,2013-07-20 14:50:00,
2013-07-20 10:55:00,85.6,75.5,29.84,SW,235,5.0,13.0,72,0.00,,,0.00,VWS V14.01,2013-07-20 14:55:00,
2013-07-20 11:00:00,86.0,75.9,29.84,WSW,252,5.0,13.0,72,0.00,,,0.00,VWS V14.01,2013-07-20 15:00:00,
2013-07-20 11:05:00,86.4,76.3,29.84,West,259,2.0,8.0,72,0.00,,,0.00,VWS V14.01,2013-07-20 15:05:00,
2013-07-20 11:10:00,86.4,76.3,29.85,WSW,253,6.0,12.0,72,0.00,,,0.00,VWS V14.01,2013-07-20 15:10:00,
2013-07-20 11:15:00,86.7,76.6,29.85,WSW,253,3.0,12.0,72,0.00,,,0.00,VWS V14.01,2013-07-20 15:15:00,
2013-07-20 11:20:00,87.1,76.1,29.85,WSW,258,2.0,12.0,70,0.00,,,0.00,VWS V14.01,2013-07-20 15:20:00,
2013-07-20 11:25:00,87.7,76.3,29.85,SW,233,9.0,17.0,69,0.00,,,0.00,VWS V14.01,2013-07-20 15:25:00,
2013-07-20 11:30:00,87.3,76.3,29.85,SW,236,6.0,6.0,70,0.00,,,0.00,VWS V14.01,2013-07-20 15:30:00,
2013-07-20 11:35:00,87.1,76.6,29.86,SSW,209,5.0,17.0,71,0.00,,,0.00,VWS V14.01,2013-07-20 15:35:00,
2013-07-20 11:40:00,87.2,76.7,29.85,WSW,248,3.0,17.0,71,0.00,,,0.00,VWS V14.01,2013-07-20 15:40:00,
2013-07-20 11:45:00,87.1,76.6,29.85,WSW,253,9.0,17.0,71,0.00,,,0.00,VWS V14.01,2013-07-20 15:45:00,
2013-07-20 11:50:00,87.3,76.8,29.85,WSW,241,5.0,17.0,71,0.00,,,0.00,VWS V14.01,2013-07-20 15:50:00,
2013-07-20 11:55:00,87.2,76.7,29.85,WSW,241,16.0,17.0,71,0.00,,,0.00,VWS V14.01,2013-07-20 15:55:00,
2013-07-20 12:00:00,87.0,76.9,29.85,West,259,5.0,8.0,72,0.00,,,0.00,VWS V14.01,2013-07-20 16:00:00,
2013-07-20 12:05:00,87.1,76.6,29.86,West,262,7.0,19.0,71,0.00,,,0.00,VWS V14.01,2013-07-20 16:05:00,
2013-07-20 12:10:00,87.5,76.9,29.86,SSW,202,9.0,19.0,71,0.00,,,0.00,VWS V14.01,2013-07-20 16:10:00,
2013-07-20 12:15:00,88.2,77.2,29.86,SW,230,5.0,19.0,70,0.00,,,0.00,VWS V14.01,2013-07-20 16:15:00,
2013-07-20 12:20:00,88.4,76.9,29.86,SW,226,7.0,19.0,69,0.00,,,0.00,VWS V14.01,2013-07-20 16:20:00,
2013-07-20 12:25:00,88.4,77.4,29.86,SW,220,7.0,19.0,70,0.00,,,0.00,VWS V14.01,2013-07-20 16:25:00,
2013-07-20 12:30:00,88.8,76.9,29.85,SSW,200,6.0,6.0,68,0.00,,,0.00,VWS V14.01,2013-07-20 16:30:00,
2013-07-20 12:35:00,89.3,77.4,29.85,SW,232,6.0,16.0,68,0.00,,,0.00,VWS V14.01,2013-07-20 16:35:00,
2013-07-20 12:40:00,89.5,77.1,29.85,SW,225,2.0,16.0,67,0.00,,,0.00,VWS V14.01,2013-07-20 16:40:00,
2013-07-20 12:45:00,89.9,77.5,29.85,SW,233,8.0,16.0,67,0.00,,,0.00,VWS V14.01,2013-07-20 16:45:00,
2013-07-20 12:50:00,90.4,77.5,29.85,South,185,8.0,16.0,66,0.00,,,0.00,VWS V14.01,2013-07-20 16:50:00,
2013-07-20 12:55:00,90.7,77.8,29.85,SW,224,10.0,16.0,66,0.00,,,0.00,VWS V14.01,2013-07-20 16:55:00,
2013-07-20 13:00:00,90.8,77.4,29.84,SW,220,6.0,10.0,65,0.00,,,0.00,VWS V14.01,2013-07-20 17:00:00,
2013-07-20 13:05:00,90.7,77.8,29.85,WSW,238,5.0,16.0,66,0.00,,CLR,0.00,VWS V14.01,2013-07-20 17:05:00,
2013-07-20 13:10:00,90.8,77.4,29.84,WSW,253,6.0,16.0,65,0.00,,CLR,0.00,VWS V14.01,2013-07-20 17:10:00,
2013-07-20 13:15:00,91.3,77.9,29.84,SSW,198,6.0,16.0,65,0.00,,CLR,0.00,VWS V14.01,2013-07-20 17:15:00,
2013-07-20 13:20:00,91.6,77.7,29.84,SW,216,5.0,16.0,64,0.00,,CLR,0.00,VWS V14.01,2013-07-20 17:20:00,
2013-07-20 13:25:00,91.9,77.5,29.84,SW,232,10.0,16.0,63,0.00,,CLR,0.00,VWS V14.01,2013-07-20 17:25:00,
2013-07-20 13:30:00,92.1,77.7,29.84,SSW,208,5.0,12.0,63,0.00,,CLR,0.00,VWS V14.01,2013-07-20 17:30:00,
2013-07-20 13:35:00,92.0,77.6,29.84,SW,232,6.0,12.0,63,0.00,,CLR,0.00,VWS V14.01,2013-07-20 17:35:00,
2013-07-20 13:40:00,91.8,77.9,29.84,WSW,242,5.0,12.0,64,0.00,,CLR,0.00,VWS V14.01,2013-07-20 17:40:00,
2013-07-20 13:45:00,91.8,76.9,29.84,WSW,239,6.0,12.0,62,0.00,,CLR,0.00,VWS V14.01,2013-07-20 17:45:00,
2013-07-20 13:50:00,91.5,77.1,29.84,WSW,240,4.0,18.0,63,0.00,,CLR,0.00,VWS V14.01,2013-07-20 17:50:00,
2013-07-20 13:56:00,91.6,77.2,29.84,SSW,198,6.0,18.0,63,0.00,,CLR,0.00,VWS V14.01,2013-07-20 17:56:00,
2013-07-20 14:01:00,92.1,77.7,29.83,SSW,213,9.0,9.0,63,0.00,,FEW044,0.00,VWS V14.01,2013-07-20 18:01:00,
2013-07-20 14:06:00,92.3,76.9,29.83,SW,229,10.0,15.0,61,0.00,,FEW044,0.00,VWS V14.01,2013-07-20 18:06:00,
2013-07-20 14:11:00,92.3,76.9,29.84,WSW,249,3.0,16.0,61,0.00,,FEW044,0.00,VWS V14.01,2013-07-20 18:11:00,
2013-07-20 14:16:00,92.5,77.6,29.83,West,259,8.0,16.0,62,0.00,,FEW044,0.00,VWS V14.01,2013-07-20 18:16:00,
2013-07-20 14:21:00,92.9,77.5,29.84,West,273,6.0,16.0,61,0.00,,FEW044,0.00,VWS V14.01,2013-07-20 18:21:00,
2013-07-20 14:26:00,92.4,77.0,29.87,North,359,18.0,19.0,61,0.00,,FEW044,0.00,VWS V14.01,2013-07-20 18:26:00,
2013-07-20 14:31:00,88.1,75.8,29.87,North,3,12.0,17.0,67,0.00,,FEW044,0.00,VWS V14.01,2013-07-20 18:31:00,
2013-07-20 14:36:00,83.0,73.9,29.87,NNE,20,5.0,23.0,74,0.00,,FEW044,0.00,VWS V14.01,2013-07-20 18:36:00,
2013-07-20 14:41:00,79.5,72.0,29.88,NNE,22,4.0,23.0,78,0.00,,FEW044,0.00,VWS V14.01,2013-07-20 18:41:00,
2013-07-20 14:46:00,77.4,71.8,29.86,NNW,344,3.0,23.0,83,0.02,,FEW044,0.02,VWS V14.01,2013-07-20 18:46:00,
2013-07-20 14:51:00,76.3,71.5,29.85,WSW,243,5.0,23.0,85,0.02,,FEW044,0.02,VWS V14.01,2013-07-20 18:51:00,
2013-07-20 14:56:00,76.2,71.4,29.85,SW,229,0.0,23.0,85,0.02,,FEW044,0.02,VWS V14.01,2013-07-20 18:56:00,
2013-07-20 15:01:00,76.6,72.1,29.85,SW,225,0.0,0.0,86,0.02,,CLR,0.02,VWS V14.01,2013-07-20 19:01:00,
2013-07-20 15:06:00,77.1,71.9,29.85,SW,226,0.0,2.0,84,0.02,,CLR,0.02,VWS V14.01,2013-07-20 19:06:00,
2013-07-20 15:11:00,77.5,72.6,29.85,SW,226,0.0,2.0,85,0.02,,CLR,0.02,VWS V14.01,2013-07-20 19:11:00,
2013-07-20 15:16:00,78.0,73.8,29.85,SW,226,0.0,2.0,87,0.04,,CLR,0.04,VWS V14.01,2013-07-20 19:16:00,
2013-07-20 15:21:00,78.7,73.8,29.84,SW,226,0.0,2.0,85,0.04,,CLR,0.04,VWS V14.01,2013-07-20 19:21:00,
2013-07-20 15:26:00,79.7,74.1,29.85,SW,226,0.0,2.0,83,0.04,,CLR,0.04,VWS V14.01,2013-07-20 19:26:00,
2013-07-20 15:31:00,80.7,74.7,29.84,SW,226,0.0,0.0,82,0.04,,CLR,0.04,VWS V14.01,2013-07-20 19:31:00,
2013-07-20 15:37:00,81.7,74.6,29.84,SW,226,0.0,0.0,79,0.04,,CLR,0.04,VWS V14.01,2013-07-20 19:37:00,
2013-07-20 15:42:00,82.6,75.1,29.84,SW,226,3.0,4.0,78,0.04,,CLR,0.04,VWS V14.01,2013-07-20 19:42:00,
2013-07-20 15:47:00,83.3,75.7,29.84,SW,226,0.0,4.0,78,0.04,,CLR,0.04,VWS V14.01,2013-07-20 19:47:00,
2013-07-20 15:52:00,83.9,76.3,29.84,SW,226,0.0,4.0,78,0.04,,CLR,0.04,VWS V14.01,2013-07-20 19:52:00,
2013-07-20 15:57:00,84.6,76.6,29.84,SW,226,0.0,4.0,77,0.04,,CLR,0.04,VWS V14.01,2013-07-20 19:57:00,
2013-07-20 16:02:00,85.1,76.7,29.84,SW,226,0.0,1.0,76,0.02,,SCT060,0.04,VWS V14.01,2013-07-20 20:02:00,
2013-07-20 16:07:00,85.5,76.7,29.83,SW,226,0.0,1.0,75,0.02,,SCT060,0.04,VWS V14.01,2013-07-20 20:07:00,
2013-07-20 16:12:00,85.8,77.4,29.83,SW,226,0.0,1.0,76,0.02,,SCT060,0.04,VWS V14.01,2013-07-20 20:12:00,
2013-07-20 16:17:00,85.9,77.5,29.83,SW,226,0.0,1.0,76,0.02,,SCT060,0.04,VWS V14.01,2013-07-20 20:17:00,
2013-07-20 16:22:00,86.0,77.9,29.83,SW,226,0.0,1.0,77,0.02,,SCT060,0.04,VWS V14.01,2013-07-20 20:22:00,
2013-07-20 16:27:00,85.8,77.8,29.83,SW,226,0.0,1.0,77,0.02,,SCT060,0.04,VWS V14.01,2013-07-20 20:27:00,
2013-07-20 16:32:00,85.6,77.6,29.84,SW,226,0.0,0.0,77,0.00,,SCT060,0.04,VWS V14.01,2013-07-20 20:32:00,
2013-07-20 16:37:00,85.6,76.4,29.84,South,186,0.0,5.0,74,0.00,,SCT060,0.04,VWS V14.01,2013-07-20 20:37:00,
2013-07-20 16:42:00,85.5,76.3,29.84,South,186,3.0,5.0,74,0.00,,SCT060,0.04,VWS V14.01,2013-07-20 20:42:00,
2013-07-20 16:47:00,85.4,75.3,29.84,South,186,5.0,5.0,72,0.00,,SCT060,0.04,VWS V14.01,2013-07-20 20:47:00,
2013-07-20 16:52:00,85.2,75.6,29.85,WSW,250,5.0,9.0,73,0.00,,SCT060,0.04,VWS V14.01,2013-07-20 20:52:00,
2013-07-20 16:57:00,84.5,75.3,29.84,West,276,0.0,9.0,74,0.00,,SCT060,0.04,VWS V14.01,2013-07-20 20:57:00,
2013-07-20 17:02:00,84.4,74.8,29.84,West,276,0.0,4.0,73,0.00,,FEW055,0.04,VWS V14.01,2013-07-20 21:02:00,
2013-07-20 17:08:00,84.7,75.5,29.84,West,276,0.0,4.0,74,0.00,,FEW055,0.04,VWS V14.01,2013-07-20 21:08:00,
2013-07-20 17:13:00,85.3,74.8,29.84,West,276,0.0,4.0,71,0.00,,FEW055,0.04,VWS V14.01,2013-07-20 21:13:00,
2013-07-20 17:18:00,85.4,75.3,29.84,West,277,0.0,4.0,72,0.00,,FEW055,0.04,VWS V14.01,2013-07-20 21:18:00,
2013-07-20 17:23:00,84.9,75.3,29.84,NNW,333,0.0,4.0,73,0.00,,FEW055,0.04,VWS V14.01,2013-07-20 21:23:00,
2013-07-20 17:28:00,84.7,75.5,29.84,NNW,333,0.0,4.0,74,0.00,,FEW055,0.04,VWS V14.01,2013-07-20 21:28:00,
2013-07-20 17:33:00,84.8,75.6,29.83,NNW,333,0.0,0.0,74,0.00,,FEW055,0.04,VWS V14.01,2013-07-20 21:33:00,
2013-07-20 17:38:00,85.4,75.8,29.83,NNW,334,0.0,0.0,73,0.00,,FEW055,0.04,VWS V14.01,2013-07-20 21:38:00,
2013-07-20 17:44:00,86.7,75.3,29.83,NNW,334,0.0,1.0,69,0.00,,FEW055,0.04,VWS V14.01,2013-07-20 21:44:00,
2013-07-20 17:49:00,88.0,76.6,29.84,NNW,333,0.0,1.0,69,0.00,,FEW055,0.04,VWS V14.01,2013-07-20 21:49:00,
2013-07-20 17:54:00,88.9,77.0,29.83,SSW,207,0.0,1.0,68,0.00,,FEW055,0.04,VWS V14.01,2013-07-20 21:54:00,
2013-07-20 17:59:00,89.0,76.2,29.84,SSW,207,0.0,2.0,66,0.00,,FEW055,0.04,VWS V14.01,2013-07-20 21:59:00,
2013-07-20 18:04:00,88.8,76.4,29.83,SSW,207,0.0,1.0,67,0.00,,CLR,0.04,VWS V14.01,2013-07-20 22:04:00,
2013-07-20 18:09:00,88.6,76.7,29.83,SSW,207,0.0,1.0,68,0.00,,CLR,0.04,VWS V14.01,2013-07-20 22:09:00,
2013-07-20 18:14:00,88.3,77.3,29.83,SSW,207,0.0,4.0,70,0.00,,CLR,0.04,VWS V14.01,2013-07-20 22:14:00,
2013-07-20 18:19:00,88.0,77.8,29.83,SSW,207,0.0,4.0,72,0.00,,CLR,0.04,VWS V14.01,2013-07-20 22:19:00,
2013-07-20 18:24:00,87.7,78.0,29.83,SSW,207,0.0,4.0,73,0.00,,CLR,0.04,VWS V14.01,2013-07-20 22:24:00,
2013-07-20 18:29:00,88.0,78.3,29.83,SSW,207,0.0,4.0,73,0.00,,CLR,0.04,VWS V14.01,2013-07-20 22:29:00,
2013-07-20 18:35:00,88.3,76.4,29.83,SSW,207,0.0,1.0,68,0.00,,CLR,0.04,VWS V14.01,2013-07-20 22:35:00,
2013-07-20 18:40:00,88.1,76.2,29.84,SSW,207,0.0,1.0,68,0.00,,CLR,0.04,VWS V14.01,2013-07-20 22:40:00,
2013-07-20 18:45:00,87.8,75.9,29.84,SSW,207,0.0,1.0,68,0.00,,CLR,0.04,VWS V14.01,2013-07-20 22:45:00,
2013-07-20 18:50:00,87.3,75.9,29.84,SSW,207,0.0,1.0,69,0.00,,CLR,0.04,VWS V14.01,2013-07-20 22:50:00,
2013-07-20 18:55:00,87.1,76.1,29.84,SSW,207,0.0,1.0,70,0.00,,CLR,0.04,VWS V14.01,2013-07-20 22:55:00,
2013-07-20 19:00:00,86.8,76.3,29.84,SSW,207,0.0,0.0,71,0.00,,CLR,0.04,VWS V14.01,2013-07-20 23:00:00,
2013-07-20 19:05:00,86.5,77.6,29.84,SSW,207,0.0,0.0,75,0.00,,BKN110,0.04,VWS V14.01,2013-07-20 23:05:00,
2013-07-20 19:10:00,86.2,77.3,29.84,SSW,207,0.0,0.0,75,0.00,,BKN110,0.04,VWS V14.01,2013-07-20 23:10:00,
2013-07-20 19:15:00,85.8,77.8,29.84,SSW,206,0.0,1.0,77,0.00,,BKN110,0.04,VWS V14.01,2013-07-20 23:15:00,
2013-07-20 19:20:00,85.2,77.9,29.84,SSW,205,0.0,1.0,79,0.00,,BKN110,0.04,VWS V14.01,2013-07-20 23:20:00,
2013-07-20 19:26:00,84.8,77.6,29.84,SSW,200,0.0,1.0,79,0.00,,BKN110,0.04,VWS V14.01,2013-07-20 23:26:00,
2013-07-20 19:31:00,84.6,77.8,29.84,SSW,206,0.0,0.0,80,0.00,,BKN110,0.04,VWS V14.01,2013-07-20 23:31:00,
2013-07-20 19:36:00,84.3,76.7,29.84,SSW,206,0.0,1.0,78,0.00,,BKN110,0.04,VWS V14.01,2013-07-20 23:36:00,
2013-07-20 19:41:00,84.1,76.5,29.84,SSW,206,0.0,1.0,78,0.00,,BKN110,0.04,VWS V14.01,2013-07-20 23:41:00,
2013-07-20 19:46:00,83.9,76.3,29.85,SSW,206,0.0,3.0,78,0.00,,BKN110,0.04,VWS V14.01,2013-07-20 23:46:00,
2013-07-20 19:51:00,83.8,77.0,29.85,SSW,206,0.0,3.0,80,0.00,,BKN110,0.04,VWS V14.01,2013-07-20 23:51:00,
2013-07-20 19:56:00,83.6,76.8,29.85,SSW,206,0.0,3.0,80,0.00,,BKN110,0.04,VWS V14.01,2013-07-20 23:56:00,
2013-07-20 20:01:00,83.4,77.3,29.85,SSW,206,0.0,0.0,82,0.00,,CLR,0.04,VWS V14.01,2013-07-21 00:01:00,
2013-07-20 20:07:00,83.1,77.0,29.85,SSW,206,0.0,0.0,82,0.00,,CLR,0.04,VWS V14.01,2013-07-21 00:07:00,
2013-07-20 20:12:00,82.8,77.1,29.85,SSW,206,0.0,0.0,83,0.00,,CLR,0.04,VWS V14.01,2013-07-21 00:12:00,
2013-07-20 20:17:00,82.3,77.0,29.85,SSW,206,0.0,0.0,84,0.00,,CLR,0.04,VWS V14.01,2013-07-21 00:17:00,
2013-07-20 20:22:00,81.9,76.9,29.85,SSW,204,0.0,0.0,85,0.00,,CLR,0.04,VWS V14.01,2013-07-21 00:22:00,
2013-07-20 20:27:00,81.5,76.6,29.86,SSW,203,0.0,0.0,85,0.00,,CLR,0.04,VWS V14.01,2013-07-21 00:27:00,
2013-07-20 20:32:00,81.1,76.5,29.86,SSW,203,0.0,0.0,86,0.00,,CLR,0.04,VWS V14.01,2013-07-21 00:32:00,
2013-07-20 20:37:00,80.6,76.4,29.86,SSW,201,0.0,0.0,87,0.00,,CLR,0.00,VWS V14.01,2013-07-21 00:37:00,
2013-07-20 20:43:00,80.2,76.0,29.87,SSW,200,0.0,0.0,87,0.00,,CLR,0.04,VWS V14.01,2013-07-21 00:43:00,
2013-07-20 20:48:00,79.8,75.9,29.87,SSW,199,0.0,1.0,88,0.00,,CLR,0.04,VWS V14.01,2013-07-21 00:48:00,
2013-07-20 20:53:00,79.4,75.9,29.87,SSW,207,0.0,1.0,89,0.00,,CLR,0.04,VWS V14.01,2013-07-21 00:53:00,
2013-07-20 20:58:00,79.0,75.5,29.87,SSW,207,0.0,1.0,89,0.00,,CLR,0.04,VWS V14.01,2013-07-21 00:58:00,
2013-07-20 21:03:00,78.7,75.2,29.87,SSW,207,0.0,0.0,89,0.00,,SCT050,0.04,VWS V14.01,2013-07-21 01:03:00,
2013-07-20 21:08:00,78.4,74.9,29.88,SSW,207,0.0,0.0,89,0.00,,SCT050,0.04,VWS V14.01,2013-07-21 01:08:00,
2013-07-20 21:13:00,78.2,74.7,29.88,SSW,207,0.0,0.0,89,0.00,,SCT050,0.04,VWS V14.01,2013-07-21 01:13:00,
2013-07-20 21:19:00,78.0,74.5,29.88,SSW,207,0.0,0.0,89,0.00,,SCT050,0.04,VWS V14.01,2013-07-21 01:19:00,
2013-07-20 21:24:00,77.8,74.0,29.88,SSW,207,0.0,0.0,88,0.00,,SCT050,0.04,VWS V14.01,2013-07-21 01:24:00,
2013-07-20 21:29:00,77.7,73.9,29.88,SSW,207,0.0,0.0,88,0.00,,SCT050,0.04,VWS V14.01,2013-07-21 01:29:00,
2013-07-20 21:34:00,77.5,74.0,29.88,SSW,207,0.0,0.0,89,0.00,,SCT050,0.04,VWS V14.01,2013-07-21 01:34:00,
2013-07-20 21:39:00,77.4,73.9,29.88,SSW,207,0.0,0.0,89,0.00,,SCT050,0.04,VWS V14.01,2013-07-21 01:39:00,
2013-07-20 21:44:00,77.1,73.6,29.88,SSW,207,0.0,0.0,89,0.00,,SCT050,0.04,VWS V14.01,2013-07-21 01:44:00,
2013-07-20 21:49:00,76.9,73.8,29.88,SSW,207,0.0,0.0,90,0.00,,SCT050,0.04,VWS V14.01,2013-07-21 01:49:00,
2013-07-20 21:55:00,76.6,73.4,29.88,SSW,207,0.0,0.0,90,0.00,,SCT050,0.04,VWS V14.01,2013-07-21 01:55:00,
2013-07-20 22:00:00,76.4,73.2,29.88,SSW,207,0.0,0.0,90,0.00,,SCT050,0.04,VWS V14.01,2013-07-21 02:00:00,
2013-07-20 22:05:00,76.2,73.4,29.89,SSW,207,0.0,0.0,91,0.00,,,0.04,VWS V14.01,2013-07-21 02:05:00,
2013-07-20 22:10:00,76.0,73.2,29.89,SSW,207,0.0,0.0,91,0.00,,,0.04,VWS V14.01,2013-07-21 02:10:00,
2013-07-20 22:15:00,75.8,73.0,29.89,SSW,206,0.0,0.0,91,0.00,,,0.04,VWS V14.01,2013-07-21 02:15:00,
2013-07-20 22:20:00,75.7,72.9,29.89,SSW,207,0.0,0.0,91,0.00,,,0.04,VWS V14.01,2013-07-21 02:20:00,
2013-07-20 22:25:00,75.6,73.1,29.89,SSW,207,0.0,0.0,92,0.00,,,0.04,VWS V14.01,2013-07-21 02:25:00,
2013-07-20 22:31:00,75.5,73.0,29.90,SSW,207,0.0,0.0,92,0.00,,,0.04,VWS V14.01,2013-07-21 02:31:00,
2013-07-20 22:36:00,75.4,72.9,29.90,SSW,206,0.0,0.0,92,0.00,,,0.04,VWS V14.01,2013-07-21 02:36:00,
2013-07-20 22:41:00,75.3,72.8,29.91,SSW,207,0.0,0.0,92,0.00,,,0.04,VWS V14.01,2013-07-21 02:41:00,
2013-07-20 22:46:00,75.2,72.7,29.91,SSW,206,0.0,0.0,92,0.00,,,0.04,VWS V14.01,2013-07-21 02:46:00,
2013-07-20 22:51:00,75.1,72.6,29.91,SSW,207,0.0,0.0,92,0.00,,,0.04,VWS V14.01,2013-07-21 02:51:00,
2013-07-20 22:56:00,75.1,72.6,29.91,SSW,207,0.0,0.0,92,0.00,,,0.04,VWS V14.01,2013-07-21 02:56:00,
2013-07-20 23:01:00,75.0,72.5,29.90,SSW,207,0.0,0.0,92,0.00,,,0.04,VWS V14.01,2013-07-21 03:01:00,
2013-07-20 23:06:00,75.0,72.5,29.90,SSW,206,0.0,0.0,92,0.00,,,0.04,VWS V14.01,2013-07-21 03:06:00,
2013-07-20 23:11:00,75.0,72.5,29.90,SSW,207,0.0,0.0,92,0.00,,,0.04,VWS V14.01,2013-07-21 03:11:00,
2013-07-20 23:16:00,75.0,72.8,29.91,SSW,206,0.0,0.0,93,0.00,,,0.04,VWS V14.01,2013-07-21 03:16:00,
2013-07-20 23:21:00,74.9,72.7,29.91,SSW,206,0.0,0.0,93,0.00,,,0.04,VWS V14.01,2013-07-21 03:21:00,
2013-07-20 23:26:00,74.8,72.6,29.91,SSW,206,0.0,0.0,93,0.00,,,0.04,VWS V14.01,2013-07-21 03:26:00,
2013-07-20 23:32:00,74.8,72.6,29.91,SSW,206,0.0,0.0,93,0.00,,,0.04,VWS V14.01,2013-07-21 03:32:00,
2013-07-20 23:37:00,74.7,72.9,29.91,SSW,206,0.0,0.0,94,0.00,,,0.04,VWS V14.01,2013-07-21 03:37:00,
2013-07-20 23:42:00,74.7,72.9,29.91,SSW,206,0.0,0.0,94,0.00,,,0.04,VWS V14.01,2013-07-21 03:42:00,
2013-07-20 23:47:00,74.7,72.9,29.92,SSW,207,0.0,0.0,94,0.00,,,0.04,VWS V14.01,2013-07-21 03:47:00,
2013-07-20 23:52:00,74.7,72.9,29.91,SSW,206,0.0,0.0,94,0.00,,,0.04,VWS V14.01,2013-07-21 03:52:00,
2013-07-20 23:57:00,74.7,72.9,29.91,SSW,206,0.0,0.0,94,0.00,,,0.04,VWS V14.01,2013-07-21 03:57:00,